Flag for Cuba Weather past 2 weeks in Camagüey, Cuba

Now
75 °F

Light rain. Mostly cloudy.


Feels Like: 75 °F
Forecast: 73 / 84 °F
Wind: 9 mph from Northeast

Location: Camaguey Aeropuerto

Current Time: Jun 3, 2015 at 7:42:37 AM

Latest Report: Jun 3, 2015 at 6:51 AM


Visibility: 3 mi

Pressure: 29.89 "Hg

Humidity: 89%

Dew point: 72 °F

Location of CamagüeyLocation

Historic Weather in Camagüey — Graph

°F

Camagüey temperature yesterday

Maximum temperature yesterday: 84 °F (at 12:50 PM)
Minimum temperature yesterday: 70 °F (at 7:53 PM)
Average temperature yesterday: 77 °F

Past Weeks' High & Low Weather Summary

 TemperatureHumidityPressure
High91 °F (May 19, 2:50 PM)94% (May 19, 6:51 AM)30.15 "Hg (May 19, 6:51 AM)
Low68 °F (May 21, 5:50 PM)38% (May 19, 2:50 PM)29.89 "Hg (Jun 3, 3:50 AM)
Average78 °F73%30.04 "Hg
* Reported May 19 5:50 AM — Jun 3 5:50 AM, Camagüey, Weather by CustomWeather, © 2015

Note: Actual official high and low records may vary slightly from our data, if they occured in-between our weather recording intervals... More about our weather records

Advertising

Camagüey weather history for previous 24 hours

 ConditionsComfort  
Time TempWeatherWind HumidityBarometerVisibility
5:50 AM
Wed, Jun 3
73 °FPassing clouds.7 mph94%29.92 "Hg6 mi
4:50 AM73 °FPassing clouds.6 mph94%29.92 "Hg6 mi
3:50 AM73 °FPassing clouds.7 mph89%29.89 "Hg6 mi
2:50 AM72 °FPassing clouds.9 mph94%29.92 "Hg6 mi
1:51 AM72 °FPartly cloudy.8 mph94%29.95 "Hg6 mi
12:50 AM72 °FPartly cloudy.7 mph94%29.98 "Hg6 mi
11:50 PM
Tue, Jun 2
72 °FPartly cloudy.7 mph94%29.98 "Hg6 mi
10:50 PM72 °FPartly cloudy.9 mph94%29.98 "Hg6 mi
9:50 PM72 °FPartly cloudy.7 mph94%30.01 "Hg6 mi
8:51 PM70 °FPartly cloudy.6 mph94%29.98 "Hg6 mi
7:53 PM70 °FMore clouds than sun.3 mph94%29.98 "Hg6 mi
6:57 PM73 °FThunderstorms. Broken clouds.10 mph83%29.98 "Hg1 mi
5:51 PM81 °FMore clouds than sun.6 mph79%29.92 "Hg6 mi
4:50 PM81 °FOvercast.6 mph79%29.92 "Hg6 mi
3:50 PM79 °FPartly sunny.7 mph74%29.95 "Hg6 mi
2:50 PM84 °FMore clouds than sun.9 mph66%29.95 "Hg6 mi
1:50 PM82 °FBroken clouds.5 mph74%29.98 "Hg6 mi
12:50 PM84 °FBroken clouds.9 mph62%29.98 "Hg6 mi
11:50 AM82 °FBroken clouds.10 mph70%30.01 "Hg6 mi
10:50 AM82 °FBroken clouds.10 mph70%30.01 "Hg6 mi
9:50 AM79 °FBroken clouds.8 mph89%30.01 "Hg5 mi
8:50 AM77 °FPartly sunny.8 mph94%29.98 "Hg5 mi
7:51 AM77 °FFog.7 mph89%29.98 "Hg4 mi
Weather by CustomWeather, © 2015

See weather overviewHow to use our weather pages